DB0HRC-6 Weather Reports


time (UTC)temp
C
wind
direction
speed
KPH
gust
KPH
rain 1hr
cm
rain 24hr
cm
rain mn
cm
humidity
%
barometer
mb
20260506134514 17 22 3.2 6.4 0.00 0.00 0.00 67 1001.1
20260506133014 17 45 1.6 3.2 0.00 0.00 0.00 69 1000.9
20260506131515 17 45 1.6 3.2 0.00 0.00 0.00 69 1001.2
20260506130014 17 292 1.6 3.2 0.00 0.00 0.00 70 1001.2
20260506124513 16 270 1.6 1.6 0.00 0.00 0.00 70 1001.2
20260506123014 16 247 0.0 1.6 0.00 0.00 0.00 74 1001.3
20260506121516 16 247 3.2 4.8 0.00 0.00 0.00 70 1001.3
20260506120014 19 225 0.0 0.0 0.00 0.00 0.00 61 1001.0
20260506114514 19 180 0.0 0.0 0.00 0.00 0.00 59 1001.1
20260506113013 18 225 0.0 1.6 0.00 0.00 0.00 63 1001.1
20260506111514 17 247 0.0 1.6 0.00 0.00 0.00 65 1001.2
20260506110014 16 247 0.0 1.6 0.00 0.00 0.00 68 1001.3
20260506104513 16 225 0.0 1.6 0.00 0.00 0.00 68 1001.3
20260506103014 17 225 0.0 1.6 0.00 0.00 0.00 68 1001.4
20260506101514 16 225 0.0 1.6 0.00 0.00 0.00 70 1001.5
20260506100014 16 225 0.0 0.0 0.00 0.00 0.00 73 1001.4
20260506094513 16 225 1.6 1.6 0.00 0.00 0.00 70 1001.2
20260506093014 16 247 1.6 1.6 0.00 0.00 0.00 71 1001.2
20260506091514 15 225 0.0 1.6 0.00 0.00 0.00 78 1001.2
20260506090014 15 225 0.0 1.6 0.00 0.00 0.00 76 1001.3
20260506084514 15 247 0.0 1.6 0.00 0.00 0.00 77 1001.1
20260506083014 14 225 1.6 1.6 0.00 0.00 0.00 78 1001.1
20260506081513 14 247 0.0 1.6 0.00 0.00 0.00 81 1000.9
20260506073014 12 225 0.0 1.6 0.00 0.00 0.00 85 1001.0
20260506071514 12 270 1.6 3.2 0.00 0.00 0.00 86 1000.7
20260506061514 12 247 0.0 3.2 0.00 0.00 0.00 87 1000.8
20260506044514 12 202 1.6 4.8 0.00 0.00 0.00 90 1000.1
20260506043014 12 225 1.6 4.8 0.00 0.00 0.00 90 1000.0
20260506041513 12 225 3.2 4.8 0.00 0.00 0.00 90 999.9
20260506040013 12 225 1.6 3.2 0.00 0.00 0.00 90 999.8
20260506034514 12 202 1.6 1.6 0.00 0.00 0.00 90 999.8
20260506033014 12 202 0.0 0.0 0.00 0.00 0.00 90 999.8
20260506031513 12 202 1.6 1.6 0.00 0.00 0.00 90 999.8
20260506030013 12 202 0.0 0.0 0.00 0.00 0.00 90 1000.0
20260506024514 12 202 0.0 0.0 0.00 0.00 0.00 90 1000.0
20260506023014 12 202 0.0 0.0 0.00 0.00 0.00 89 999.8
20260506021514 12 202 0.0 0.0 0.00 0.00 0.00 89 1000.0
20260506020013 12 202 0.0 0.0 0.00 0.00 0.00 89 999.9
20260506014513 12 202 0.0 0.0 0.00 0.00 0.00 89 1000.0
20260506013013 12 202 0.0 0.0 0.00 0.00 0.00 89 1000.2
20260506011514 12 180 0.0 0.0 0.00 0.00 0.00 89 1000.2
20260506010014 12 202 0.0 0.0 0.00 0.00 0.00 89 1000.2
20260506004513 12 180 0.0 1.6 0.00 0.00 0.00 89 1000.5
20260506003013 12 180 1.6 1.6 0.00 0.00 0.00 89 1000.7
20260506001514 12 180 0.0 0.0 0.00 0.00 0.00 88 1000.8
20260506000015 12 135 0.0 1.6 0.00 0.00 0.00 88 1001.0
20260505234513 12 135 0.0 0.0 0.00 0.00 0.00 88 1001.1
20260505233013 12 157 0.0 1.6 0.00 0.00 0.00 88 1001.2
20260505231513 12 112 1.6 3.2 0.00 0.00 0.00 88 1001.2
20260505230013 12 112 1.6 3.2 0.00 0.00 0.00 88 1001.5
20260505224513 13 135 1.6 1.6 0.00 0.00 0.00 88 1001.4
20260505223013 13 337 1.6 3.2 0.00 0.00 0.00 88 1001.3
20260505221513 13 315 0.0 0.0 0.00 0.00 0.00 88 1001.3
20260505220014 13 315 0.0 0.0 0.00 0.00 0.00 88 1001.6
20260505214513 13 315 0.0 1.6 0.00 0.00 0.00 88 1001.8
20260505213013 13 315 0.0 0.0 0.00 0.00 0.00 87 1002.3
20260505211514 13 315 0.0 0.0 0.00 0.00 0.00 87 1002.6
20260505210013 13 337 0.0 0.0 0.00 0.00 0.00 86 1002.3
20260505204514 14 337 0.0 0.0 0.00 0.00 0.00 85 1002.4
20260505203013 14 337 0.0 0.0 0.00 0.00 0.00 84 1002.6
20260505201514 14 337 0.0 0.0 0.00 0.00 0.00 83 1002.6
20260505200013 15 22 0.0 1.6 0.00 0.00 0.00 79 1002.1
20260505194513 15 315 0.0 1.6 0.00 0.00 0.00 77 1001.8
20260505193013 15 0 1.6 3.2 0.00 0.00 0.00 76 1001.5
20260505191513 15 337 1.6 1.6 0.00 0.00 0.00 74 1001.5
20260505190013 15 337 0.0 0.0 0.00 0.00 0.00 74 1001.7
20260505184513 15 0 0.0 1.6 0.00 0.00 0.00 75 1001.9
20260505183016 15 0 0.0 1.6 0.00 0.00 0.00 75 1001.8
20260505181513 16 337 1.6 1.6 0.00 0.00 0.00 74 1001.8
20260505180013 16 0 0.0 1.6 0.00 0.00 0.00 73 1002.1
20260505174512 16 0 1.6 1.6 0.00 0.00 0.00 71 1002.4
20260505173013 16 0 0.0 1.6 0.00 0.00 0.00 71 1002.2
20260505171513 17 0 0.0 1.6 0.00 0.00 0.00 71 1002.3
20260505170013 17 337 1.6 1.6 0.00 0.00 0.00 70 1002.5
20260505164513 17 0 0.0 1.6 0.00 0.00 0.00 70 1002.4
20260505163013 17 0 1.6 3.2 0.00 0.00 0.00 68 1002.7
20260505161513 17 0 1.6 1.6 0.00 0.00 0.00 67 1002.6
20260505153013 17 0 1.6 3.2 0.00 0.00 0.00 62 1003.1
20260505151513 17 0 1.6 1.6 0.00 0.00 0.00 64 1003.1